Simultaneous Nadir Overpasses (SNOs) Predictions

Prediction of SNOs between GOES-16 and NOAA-19 Satellite Orbit:

Table of predicted SNOs for the next 14.0 days since TLE Epoch: 3/10/2017
Index Date Time (GOES-16) GOES-16 Lat,Lon NOAA-19 Lat,Lon Distance(km) Time Diff (sec)
1 03/11/2017 09:18:19 0.01, -89.50 0.68, -92.48 340.06 80
2 03/12/2017 09:06:52 0.01, -89.50 0.08, -89.69 22.57 80
3 03/13/2017 08:52:47 0.00, -89.50 -0.58, -86.91 295.45 80
4 03/15/2017 21:14:30 -0.00, -89.49 -0.58, -92.09 296.47 80
5 03/16/2017 21:05:45 0.00, -89.50 0.06, -89.31 21.72 80
6 03/17/2017 20:54:20 0.00, -89.51 0.71, -86.53 339.88 80
7 03/20/2017 09:15:52 -0.00, -89.55 0.50, -91.66 240.63 80
8 03/21/2017 09:01:47 0.00, -89.56 -0.17, -88.88 77.86 80
9 03/22/2017 08:50:20 0.00, -89.57 -0.78, -86.09 396.40 80




NCC Satellite Simultaneous Nadir Overpasses (SNOs) Prediction Service
